TimeMST,TemperatureF,Dew PointF,Humidity,Sea Level PressureIn,VisibilityMPH,Wind Direction,Wind SpeedMPH,Gust SpeedMPH,PrecipitationIn,Events,Conditions,WindDirDegrees,DateUTC
12:13 AM,6.8,1.4,79,30.10,2.5,Calm,Calm,-,0.00,Snow,Light Snow,0,2013-01-15 07:13:00
12:38 AM,6.8,1.4,79,30.11,3.0,Calm,Calm,-,0.00,Snow,Light Snow,0,2013-01-15 07:38:00
12:53 AM,8.1,3.0,80,30.35,3.0,Calm,Calm,-,0.00,Snow,Light Snow,0,2013-01-15 07:53:00
1:01 AM,8.6,3.2,79,30.11,2.5,Calm,Calm,-,0.00,Snow,Light Snow,0,2013-01-15 08:01:00
1:23 AM,8.6,3.2,79,30.12,2.5,South,3.5,-,0.00,Snow,Light Snow,170,2013-01-15 08:23:00
1:48 AM,8.6,3.2,79,30.12,1.0,Calm,Calm,-,0.00,Snow,Light Snow,0,2013-01-15 08:48:00
1:53 AM,8.1,3.9,83,30.33,0.8,SE,3.5,-,0.00,Snow,Light Snow,140,2013-01-15 08:53:00
2:02 AM,8.6,3.2,79,30.12,1.2,SE,3.5,-,0.00,Snow,Light Snow,130,2013-01-15 09:02:00
2:34 AM,8.6,3.2,79,30.12,2.5,South,3.5,-,0.01,Snow,Light Snow,190,2013-01-15 09:34:00
2:45 AM,8.6,3.2,79,30.12,1.5,SSW,3.5,-,0.01,Snow,Light Snow,200,2013-01-15 09:45:00
2:53 AM,8.1,3.9,83,30.34,1.2,South,4.6,-,0.01,Snow,Light Snow,190,2013-01-15 09:53:00
3:30 AM,8.6,5.0,85,30.15,2.0,Calm,Calm,-,0.00,Snow,Light Snow,0,2013-01-15 10:30:00
3:38 AM,8.6,3.2,79,30.14,1.2,Calm,Calm,-,0.01,Snow,Light Snow,0,2013-01-15 10:38:00
3:45 AM,8.6,3.2,79,30.13,1.0,SSE,3.5,-,0.01,Snow,Light Snow,150,2013-01-15 10:45:00
3:53 AM,8.1,5.0,87,30.35,1.2,Calm,Calm,-,0.01,Snow,Light Snow,0,2013-01-15 10:53:00
4:27 AM,8.6,5.0,85,30.14,0.8,Calm,Calm,-,0.02,Snow,Light Snow,0,2013-01-15 11:27:00
4:43 AM,8.6,5.0,85,30.14,0.8,Calm,Calm,-,0.03,Snow,Light Snow,0,2013-01-15 11:43:00
4:53 AM,8.1,5.0,87,30.37,0.8,Calm,Calm,-,0.03,Snow,Light Snow,0,2013-01-15 11:53:00
5:00 AM,8.6,5.0,85,30.14,0.8,Calm,Calm,-,0.00,Snow,Light Snow,0,2013-01-15 12:00:00
5:31 AM,8.6,5.0,85,30.14,0.5,South,3.5,-,0.02,Fog-Snow,Snow,180,2013-01-15 12:31:00
5:53 AM,8.1,5.0,87,30.39,0.8,Calm,Calm,-,0.03,Snow,Light Snow,0,2013-01-15 12:53:00
6:02 AM,8.6,5.0,85,30.15,0.8,Calm,Calm,-,0.01,Snow,Light Snow,0,2013-01-15 13:02:00
6:19 AM,8.6,5.0,85,30.15,0.8,Calm,Calm,-,0.01,Snow,Light Snow,0,2013-01-15 13:19:00
6:26 AM,8.6,5.0,85,30.15,1.0,Calm,Calm,-,0.02,Snow,Light Snow,0,2013-01-15 13:26:00
6:40 AM,8.6,6.8,92,30.15,1.2,Calm,Calm,-,0.02,Snow,Light Snow,0,2013-01-15 13:40:00
6:53 AM,9.0,6.1,88,30.40,1.2,South,3.5,-,0.02,Snow,Light Snow,170,2013-01-15 13:53:00
7:00 AM,8.6,5.0,85,30.15,1.0,SE,4.6,-,0.00,Snow,Light Snow,140,2013-01-15 14:00:00
7:08 AM,8.6,6.8,92,30.15,1.2,SSE,5.8,-,0.01,Snow,Light Snow,150,2013-01-15 14:08:00
7:53 AM,9.0,6.1,88,30.40,1.5,SE,4.6,-,0.01,Snow,Light Snow,130,2013-01-15 14:53:00
8:04 AM,8.6,6.8,92,30.17,2.5,SE,4.6,-,0.00,Snow,Light Snow,130,2013-01-15 15:04:00
8:20 AM,10.4,6.8,85,30.18,1.5,SE,4.6,-,0.00,Snow,Light Snow,140,2013-01-15 15:20:00
8:41 AM,10.4,6.8,85,30.18,2.0,SE,3.5,-,0.00,Snow,Light Snow,140,2013-01-15 15:41:00
8:53 AM,10.0,7.0,87,30.40,2.5,SSE,3.5,-,0.00,Snow,Light Snow,150,2013-01-15 15:53:00
9:09 AM,10.4,6.8,85,30.18,3.0,SE,3.5,-,0.00,Snow,Light Snow,140,2013-01-15 16:09:00
9:53 AM,12.0,8.1,84,30.40,9.0,ESE,3.5,-,0.00,,Overcast,120,2013-01-15 16:53:00
10:07 AM,12.2,8.6,85,30.18,1.8,ESE,5.8,-,0.00,Snow,Light Snow,110,2013-01-15 17:07:00
10:15 AM,12.2,8.6,85,30.17,1.2,East,6.9,-,0.00,Snow,Light Snow,100,2013-01-15 17:15:00
10:27 AM,12.2,8.6,85,30.18,3.0,SE,4.6,-,0.00,Snow,Light Snow,130,2013-01-15 17:27:00
10:53 AM,14.0,9.0,80,30.39,10.0,SSE,6.9,-,0.00,,Mostly Cloudy,160,2013-01-15 17:53:00
11:53 AM,16.0,10.9,81,30.35,10.0,ESE,4.6,-,N/A,,Overcast,120,2013-01-15 18:53:00
12:53 PM,17.1,12.0,81,30.34,10.0,South,4.6,-,N/A,,Overcast,190,2013-01-15 19:53:00
1:53 PM,18.0,10.9,74,30.34,10.0,ESE,3.5,-,N/A,,Mostly Cloudy,110,2013-01-15 20:53:00
2:53 PM,19.0,12.9,77,30.34,10.0,SE,3.5,-,N/A,,Overcast,130,2013-01-15 21:53:00
3:53 PM,19.9,12.9,74,30.36,10.0,Calm,Calm,-,N/A,,Overcast,0,2013-01-15 22:53:00
4:53 PM,18.0,12.0,78,30.38,10.0,Calm,Calm,-,N/A,,Overcast,0,2013-01-15 23:53:00
5:53 PM,19.0,14.0,81,30.38,10.0,Calm,Calm,-,N/A,,Overcast,0,2013-01-16 00:53:00
6:53 PM,18.0,12.9,81,30.40,10.0,Calm,Calm,-,N/A,,Mostly Cloudy,0,2013-01-16 01:53:00
7:53 PM,12.0,8.1,84,30.42,10.0,Calm,Calm,-,N/A,,Clear,0,2013-01-16 02:53:00
8:53 PM,10.9,9.0,92,30.41,10.0,ESE,4.6,-,N/A,,Clear,120,2013-01-16 03:53:00
9:53 PM,9.0,7.0,92,30.41,10.0,ESE,4.6,-,N/A,,Clear,120,2013-01-16 04:53:00
10:53 PM,3.9,1.9,91,30.42,10.0,West,4.6,-,N/A,,Clear,260,2013-01-16 05:53:00
11:53 PM,3.0,1.0,91,30.43,10.0,WNW,4.6,-,N/A,,Clear,300,2013-01-16 06:53:00